Home   Weather   Chorzów   Past weeks

Flag for Poland Past Weather in Chorzów, Poland — Yesterday and Last 2 Weeks

Now
73 °F

Passing clouds.


Feels Like: 76 °F
Forecast: 61 / 87 °F
Wind: 5 mph from Northwest

Location: Katowice Airport

Current Time: Jul 21, 2017 at 6:58:47 pm

Latest Report: Jul 21, 2017 at 6:30 pm


Visibility: N/A

Pressure: 29.95 "Hg

Humidity: 69%

Dew Point: 63 °F

Location of ChorzówLocation

Past Weather in Chorzów — Graph

°F

Chorzów Temperature Yesterday

Maximum temperature yesterday: 88 °F (at 2:30 pm)
Minimum temperature yesterday: 59 °F (at 4:00 am)
Average temperature yesterday: 74 °F

High & Low Weather Summary for the Past Weeks

 TemperatureHumidityPressure
High88 °F (Jul 20, 2:30 pm)100% (Jul 8, 4:30 am)30.21 "Hg (Jul 8, 4:30 am)
Low39 °F (Jul 14, 5:00 am)29% (Jul 19, 5:00 pm)29.71 "Hg (Jul 13, 3:00 am)
Average65 °F71%29.99 "Hg
* Reported Jul 6 6:00 pm — Jul 21 6:00 pm, Chorzów. Weather by CustomWeather, © 2017

Note: Actual official high and low records may vary slightly from our data, if they occured in-between our weather recording intervals... More about our weather records

Advertising

Chorzów Weather History for the Previous 24 Hours

Scroll right to see more
 ConditionsComfort  
Time TempWeatherWind HumidityBarometerVisibility
6:00 pm
Fri, Jul 21
73 °FPassing clouds.6 mph74%29.98 "HgN/A
5:30 pm73 °FPassing clouds.6 mph69%29.98 "HgN/A
5:00 pm73 °FPassing clouds.7 mph69%29.98 "HgN/A
4:00 pm70 °FScattered clouds.7 mph83%29.98 "HgN/A
3:30 pm70 °FPassing clouds.6 mph88%29.98 "HgN/A
3:00 pm66 °FBroken clouds.8 mph94%29.98 "HgN/A
2:30 pm66 °FSprinkles. Broken clouds.7 mph94%29.98 "Hg6 mi
2:00 pm66 °FLots of rain. Broken clouds.8 mph94%29.98 "Hg2 mi
1:30 pm66 °FRain showers. Broken clouds.7 mph94%29.98 "Hg2 mi
1:00 pm66 °FRain showers. Cloudy.5 mph94%29.98 "Hg3 mi
12:30 pm66 °FSprinkles. Broken clouds.3 mph94%29.98 "Hg5 mi
12:00 pm66 °FSprinkles. Cloudy.5 mph94%29.98 "Hg5 mi
11:30 am66 °FSprinkles. Broken clouds.3 mph94%29.98 "HgN/A
11:00 am64 °FSprinkles. Broken clouds.2 mph100%29.98 "Hg3 mi
10:30 am64 °FRain showers. Mostly cloudy.6 mph94%29.95 "Hg3 mi
10:00 am64 °FLots of rain. Partly sunny.5 mph94%29.95 "Hg1 mi
9:30 am66 °FSprinkles. Partly sunny.8 mph88%29.95 "HgN/A
9:00 am68 °FSprinkles. Partly sunny.6 mph83%29.95 "HgN/A
8:30 am68 °FScattered clouds.8 mph83%29.95 "HgN/A
8:00 am68 °FPartly sunny.7 mph83%29.92 "HgN/A
7:30 am66 °FPassing clouds.5 mph88%29.92 "HgN/A
7:00 am66 °FScattered clouds.6 mph94%29.92 "HgN/A
6:30 am66 °FSprinkles. Broken clouds.9 mph94%29.92 "Hg5 mi
6:00 am66 °FSprinkles. Broken clouds.10 mph88%29.89 "Hg5 mi
5:30 am66 °FSprinkles. Scattered clouds.12 mph94%29.89 "Hg4 mi
5:00 am68 °FSprinkles. Scattered clouds.8 mph83%29.89 "HgN/A
4:30 am68 °FPassing clouds.15 mph88%29.89 "HgN/A
4:00 am66 °FClear.8 mph88%29.89 "Hg10 mi
3:30 am66 °FClear.3 mph88%29.86 "Hg10 mi
3:00 am64 °FClear.7 mph94%29.89 "Hg10 mi
2:30 am66 °FClear.1 mph88%29.89 "Hg10 mi
2:00 am66 °FThundershowers. Clear.1 mph88%29.86 "HgN/A
1:30 am66 °FClear.1 mph88%29.86 "Hg10 mi
1:00 am68 °FClear.1 mph83%29.86 "Hg10 mi
12:30 am68 °FClear.1 mph83%29.86 "Hg10 mi
12:00 am70 °FClear.2 mph78%29.86 "Hg10 mi
11:30 pm
Thu, Jul 20
72 °FClear.6 mph78%29.86 "Hg10 mi
11:00 pm70 °FClear.2 mph83%29.86 "Hg10 mi
10:30 pm70 °FClear.3 mph83%29.86 "Hg10 mi
10:00 pm72 °FPassing clouds.5 mph78%29.86 "HgN/A
9:30 pm72 °FClear.5 mph78%29.86 "Hg10 mi
9:00 pm73 °FClear.5 mph74%29.86 "Hg10 mi
8:30 pm73 °FSunny.7 mph74%29.83 "Hg10 mi
8:00 pm75 °FSunny.10 mph69%29.83 "Hg10 mi
7:30 pm77 °FSunny.8 mph69%29.83 "Hg10 mi
7:00 pm77 °FSunny.7 mph69%29.83 "Hg10 mi
6:30 pm79 °FSunny.10 mph61%29.83 "Hg10 mi
6:00 pm81 °FPassing clouds.9 mph54%29.83 "HgN/A
Weather by CustomWeather, © 2017

See weather overviewHow to use our weather pages